(499641) = 2010 VS32

Discovered at Mount Lemmon on 2009-04-18 by Mt. Lemmon Survey.

Orbit

Orbit type: Main Belt

Note: WebGL enabled browser required.

epoch2022-01-21.0
epoch JD2459600.5
perihelion date2020-11-25.61600
perihelion JD2459179.11600
argument of perihelion (°)186.44181
ascending node (°)120.42531
inclination (°)2.97940
eccentricity0.2083078
perihelion distance (AU)1.8648684
Tisserand w.r.t. Jupiter3.5
ΔV w.r.t. Earth (km/sec)8.5
semimajor axis (AU)2.3555472
mean anomaly (°)114.87993
mean daily motion (°/day)0.27262530
aphelion distance (AU)2.846
period (years)3.62
P-vector [x]0.59983045
P-vector [y]-0.73176316
P-vector [z]-0.32361414
Q-vector [x]0.79887088
Q-vector [y]0.57037427
Q-vector [z]0.19099350
absolute magnitude18.19
phase slope0.15
uncertainty0
referenceMPO 700917
observations used120
oppositions9
arc length (days)5580
first opposition used2006
last opposition used2021
residual rms (arc-secs)0.76
perturbers coarse indicatorM-v
perturbers precise indicator003Ek
first observation date used2006-08-30.0
last observation date used2021-12-09.0
computer namePan
JD of orbit computation2458026.119443
perihelion JD uncertainty (days)5.9904E-05
argument of perihelion uncertainty (°)1.3122E-04
ascending node uncertainty (°)1.2994E-04
inclination uncertainty (°)3.6664E-06
eccentricity uncertainty 4.0877E-08
perihelion distance uncertainty (AU)9.4298E-08
Minimum Orbit Intersection Distances (in AU)
for orbit epoch: 2459200.5, reference: E2021-B25
Mercury1.42901
Venus1.13734
Earth0.84777
Mars0.46306
Jupiter2.39682
Saturn6.29185
Uranus15.596
Neptune27.4181

Observations

122 total observations over interval: 2006 08 30.30535 – 2021 12 09.287976
These data are available for download (format description).

